DW2274 Weather Reports


time (UTC)temp
F
wind
direction
speed
knots
gust
knots
rain 1hr
in
rain 24hr
in
rain mn
in
humidity
%
barometer
mb
20260507060105 55 288 0.0 0.0 0.00 0.00 0.00 69 1011.5
20260507054638 55 288 0.0 0.0 0.00 0.00 0.00 71 1011.2
20260507053057 55 288 0.0 0.0 0.00 0.00 0.00 73 1011.3
20260507051555 56 284 0.0 0.0 0.00 0.00 0.00 75 1011.5
20260507050056 56 283 0.0 0.0 0.00 0.00 0.00 77 1011.6
20260507044554 56 284 0.0 0.0 0.00 0.00 0.00 79 1011.3
20260507043048 57 283 0.0 0.9 0.00 0.00 0.00 81 1010.7
20260507041548 57 285 0.0 0.9 0.00 0.00 0.00 81 1010.6
20260507040044 58 284 0.0 2.6 0.00 0.00 0.00 80 1010.6
20260507034542 59 306 0.0 1.7 0.00 0.00 0.00 81 1010.6
20260507033042 59 271 0.0 0.0 0.00 0.00 0.00 81 1010.8
20260507031539 60 271 0.0 3.5 0.00 0.00 0.00 79 1010.3
20260507030041 61 270 0.0 0.0 0.00 0.00 0.00 77 1010.1
20260507024540 62 263 0.0 2.6 0.00 0.00 0.00 77 1010.5
20260507023033 62 263 0.9 2.6 0.00 0.00 0.00 75 1009.8
20260507021531 63 263 0.9 5.2 0.00 0.00 0.00 75 1009.8
20260507020032 63 263 0.0 0.9 0.00 0.00 0.00 75 1009.8
20260507014544 64 171 0.0 0.0 0.00 0.00 0.00 74 1009.9
20260507013030 65 171 0.0 0.0 0.00 0.00 0.00 76 1010.1
20260507011533 65 171 0.0 0.0 0.00 0.00 0.00 78 1010.0
20260507010033 66 171 0.0 0.0 0.00 0.00 0.00 81 1010.0
20260507004528 66 171 0.0 0.0 0.00 0.00 0.00 82 1009.4
20260507003028 66 171 0.0 0.0 0.00 0.00 0.00 82 1009.3
20260507001529 66 171 0.0 0.0 0.00 0.00 0.00 82 1009.2
20260507000035 67 171 0.0 0.0 0.00 0.00 0.00 81 1008.9
20260506234526 67 171 0.0 0.0 0.00 0.00 0.00 81 1008.8
20260506233026 67 171 0.0 0.9 0.00 0.00 0.00 81 1008.6
20260506231526 67 171 0.0 0.0 0.00 0.00 0.00 81 1008.6
20260506230026 68 171 0.0 0.0 0.00 0.00 0.00 81 1008.8
20260506224525 68 171 0.0 0.0 0.00 0.00 0.00 81 1008.6
20260506223024 68 171 0.0 0.0 0.00 0.00 0.00 81 1008.4
20260506221524 68 171 0.0 0.9 0.00 0.00 0.00 80 1008.6
20260506220024 68 184 0.0 0.0 0.00 0.00 0.00 80 1008.6
20260506214523 68 171 0.0 0.0 0.00 0.00 0.00 80 1008.4
20260506213023 68 166 0.0 0.0 0.00 0.00 0.00 80 1008.2
20260506211522 68 157 0.0 0.0 0.00 0.00 0.00 80 1008.3
20260506210020 67 170 0.0 0.0 0.00 0.00 0.00 81 1008.0
20260506204524 67 170 0.0 0.0 0.00 0.00 0.00 81 1008.1
20260506203020 67 161 0.0 0.0 0.00 0.00 0.00 81 1008.1
20260506201519 67 178 0.0 0.0 0.00 0.00 0.00 80 1008.1
20260506200017 67 235 0.0 0.0 0.00 0.00 0.00 80 1008.2
20260506194518 67 167 0.0 6.1 0.00 0.00 0.00 81 1008.3
20260506193015 67 170 0.0 0.0 0.00 0.00 0.00 81 1008.4
20260506191513 66 182 0.0 0.9 0.00 0.00 0.00 81 1008.6
20260506190011 65 215 0.0 0.0 0.00 0.00 0.00 79 1008.7
20260506184511 64 204 0.0 0.9 0.00 0.00 0.00 77 1008.7
20260506183011 63 228 0.0 0.9 0.00 0.00 0.00 74 1008.8
20260506181510 63 198 0.0 0.9 0.00 0.00 0.00 70 1008.9
20260506180009 62 194 0.0 0.9 0.00 0.00 0.00 67 1009.0
20260506174508 62 146 0.0 0.9 0.00 0.00 0.00 61 1009.0
20260506173011 61 159 2.6 9.6 0.00 0.00 0.00 57 1009.0
20260506171510 61 158 0.0 0.9 0.00 0.00 0.00 56 1009.0
20260506170006 61 157 0.0 0.9 0.00 0.00 0.00 56 1009.1
20260506164506 61 202 0.0 8.7 0.00 0.00 0.00 56 1009.2
20260506163009 60 152 0.0 8.7 0.00 0.00 0.00 57 1009.3
20260506161503 60 170 0.0 0.9 0.00 0.00 0.00 57 1009.3
20260506160005 61 215 0.0 11.3 0.00 0.00 0.00 55 1009.3
20260506154628 60 181 0.0 0.9 0.00 0.00 0.00 57 1009.1
20260506153110 61 150 0.0 0.9 0.00 0.00 0.00 58 1009.7
20260506151600 61 156 0.0 8.7 0.00 0.00 0.00 60 1009.9
20260506150100 61 160 0.0 2.6 0.00 0.00 0.00 63 1010.0
20260506144555 61 194 0.0 0.9 0.00 0.00 0.00 64 1010.2
20260506143105 61 180 0.0 6.1 0.00 0.00 0.00 66 1010.0
20260506141554 61 154 0.0 0.0 0.00 0.00 0.00 70 1010.0
20260506140057 61 166 0.0 0.0 0.00 0.00 0.00 75 1010.5
20260506134553 61 170 0.0 0.0 0.00 0.00 0.00 78 1010.4
20260506133053 62 169 0.0 0.9 0.00 0.00 0.00 80 1010.2
20260506131552 62 193 0.0 0.9 0.00 0.00 0.00 81 1010.1
20260506130051 62 162 0.0 0.0 0.00 0.00 0.00 82 1010.0
20260506124551 62 158 0.0 0.0 0.00 0.00 0.00 82 1010.0
20260506123051 63 155 0.0 0.9 0.00 0.00 0.00 81 1010.3
20260506121550 63 182 0.0 0.0 0.00 0.00 0.00 80 1010.5
20260506120056 64 181 0.0 0.0 0.00 0.00 0.00 79 1010.5
20260506114557 63 173 0.0 0.9 0.00 0.00 0.00 80 1009.9
20260506113048 63 161 0.0 0.9 0.00 0.00 0.00 81 1010.0
20260506111548 62 155 0.0 0.9 0.00 0.00 0.00 81 1009.9
20260506110055 62 175 0.0 0.9 0.00 0.00 0.00 81 1009.6
20260506104547 61 191 0.0 0.0 0.00 0.00 0.00 82 1009.6
20260506103047 61 119 0.0 0.0 0.00 0.00 0.00 82 1009.6
20260506101546 61 165 0.0 0.9 0.00 0.00 0.00 82 1009.7
20260506100047 61 174 0.0 0.0 0.00 0.00 0.00 82 1009.7
20260506094601 62 164 0.0 0.0 0.00 0.00 0.00 81 1009.7
20260506093046 62 161 0.0 0.0 0.00 0.00 0.00 81 1009.6
20260506091540 62 165 0.0 0.0 0.00 0.00 0.00 81 1009.7
20260506090038 62 163 0.0 0.0 0.00 0.00 0.00 81 1009.8
20260506084538 63 154 0.0 0.0 0.00 0.00 0.00 81 1009.8
20260506083036 63 163 0.0 0.0 0.00 0.00 0.00 80 1009.8
20260506081536 63 166 0.0 0.0 0.00 0.00 0.00 79 1009.8
20260506073026 65 174 0.0 0.9 0.00 0.00 0.00 72 1009.9
20260506071530 66 175 0.0 0.0 0.00 0.00 0.00 70 1010.1
20260506061529 69 176 0.0 0.0 0.00 0.00 0.00 61 1010.3